Location: Newark
(45.4422°N, 16.2769°E)
Time: 23:20:59
(UTC+00:00)

Vanguard 2 - Pass Details

Date: 14 December 2019
Orbit: 553 x 2938 km, 32.9° (Epoch: 26 January)

Event Time Altitude Azimuth Distance (km) Brightness Sun altitude
Rises 22:43:56 0° 224° (SW) 5,133 - -67.8°
Reaches altitude 10° 22:47:13 10° 217° (SW) 4,440 - -67.8°
Maximum altitude 22:58:58 40° 154° (SSE) 3,440 - -67.7°
Exits shadow 23:12:51 13° 96° (E) 5,470 11.8 -67.3°
Drops below altitude 10° 23:14:20 10° 94° (E) 5,767 11.9 -67.2°
Sets 23:19:17 0° 88° (E) 6,778 12.5 -67.0°
